Regional Weather Roundup
Issued by NWS

Home | Current Version | Previous Version | Graphics & Text | Print | Product List | Glossary On
Versions: 1 2 3 4 5 6 7 8 9 10 11 12 13 14 15 16 17 18 19 20 21 22 23 24 25 26 27 28 29 30 31 32 33 34 35 36 37 38 39 40 41 42 43 44 45 46 47 48
000
ASUS45 KBOU 261807
RWRCO

WEATHER ROUNDUP FOR COLORADO
NATIONAL WEATHER SERVICE DENVER/BOULDER CO
1100 AM MST MON JAN 26 2015

NOTE: "FAIR" INDICATES FEW OR NO CLOUDS BELOW 12000 FEET WITH NO
SIGNIFICANT WEATHER AND/OR OBSTRUCTIONS TO VISIBILITY.

COZ001>005-013-030-031-261900-
...NORTHWEST COLORADO...

CITY           SKY/WX    TMP DP  RH WIND       PRES   REMARKS
CRAIG          SUNNY     27  22  81 SW5       30.47F WCI  22
HAYDEN         SUNNY     32  21  64 E13       30.47F WCI  22
MEEKER         SUNNY     30  21  69 MISG      30.46F
MOUNT WERNER   NOT AVBL
STEAMBOAT SPGS SUNNY     25  21  85 CALM      30.49F
WALDEN         SUNNY     34  23  64 CALM      30.50F
$$

COZ006>008-011-261900-
...WEST CENTRAL VALLEYS...

CITY           SKY/WX    TMP DP  RH WIND       PRES   REMARKS
GRAND JUNCTION SUNNY     45  25  45 SE7       30.43F
MONTROSE       SUNNY     44  25  47 VRB3      30.46F
EAGLE          SUNNY     36  28  75 CALM      30.57S
RIFLE          SUNNY     41  25  53 SE5       30.46F
DELTA          SUNNY     43  28  54 CALM      30.46F
NUCLA          SUNNY     43  23  45 NW3       30.44F
$$

COZ017>023-064>068-261900-
...SOUTHWEST COLORADO...

CITY           SKY/WX    TMP DP  RH WIND       PRES   REMARKS
DURANGO        SUNNY     40  26  57 E6        30.40S
CORTEZ         SUNNY     50  26  39 CALM      30.38F
PAGOSA SPRINGS SUNNY     47  19  34 CALM      30.43S
TELLURIDE      SUNNY     45  16  31 CALM      30.49F
WOLF CREEK PAS NOT AVBL
$$

COZ009-010-012-014-032>034-037-058>063-261900-
...CENTRAL COLORADO...

CITY           SKY/WX    TMP DP  RH WIND       PRES   REMARKS
ASPEN          SUNNY     40  18  41 NW3       30.47F
BUENA VISTA    SUNNY     48  17  29 SE5       30.45F
COPPER MTN     SUNNY     37   9  30 NW5       30.62S
BERTHOUD PASS  FAIR      28  23  80 N7G20     30.64S WCI  21
COTTONWOOD PAS SUNNY     52  12  20 CALM      30.52S
GUNNISON       SUNNY      9  -6  52 CALM      30.60S
KREMMLING      CLOUDY   N/A N/A N/A CALM      30.59F
LEADVILLE      SUNNY     45  13  27 N9        30.52S
MONARCH PASS   SUNNY     37  10  32 E16       30.70R
SALIDA         SUNNY     47  20  34 CALM      30.53F
SUNLIGHT       SUNNY     41  21  45 CALM      30.58
WILKERSON PASS SUNNY     43   9  24 NE6       30.60S
$$

COZ069>075-261900-
...SAN LUIS VALLEY/SANGRE DE CRISTO MOUNTAINS...

CITY           SKY/WX    TMP DP  RH WIND       PRES   REMARKS
ALAMOSA        MOSUNNY   39  20  46 NW3       30.47S
LA VETA PASS   NOT AVBL
SAGUACHE       MOSUNNY   32  21  64 W5        30.49F WCI  27
$$

COZ035-036-038>040-261900-
...NORTHERN COLORADO FRONT RANGE...

CITY           SKY/WX    TMP DP  RH WIND       PRES   REMARKS
DENVER INTL AP SUNNY     62  25  24 SW12      30.28R
DMNS CITY PARK   N/A     64  20  18 S8        30.28S
AURORA         SUNNY     61  24  24 SW13      30.30R
FRONT RANGE AP NOT AVBL
ERIE MUNI ARPT SUNNY     68  20  16 SE3       30.27R
BOULDER MUN AP SUNNY     68  23  18 E5        30.26F
CENTENNIAL     SUNNY     63  21  20 SW6       30.31S
BROOMFIELD     SUNNY     66  27  22 VRB5      30.29R
FORT COLLINS   SUNNY     59  32  36 S6        30.27S
LONGMONT       SUNNY     68  25  19 CALM      30.27F
$$

COZ041-046-047-076>085-087-088-261900-
...PIKES PEAK/PALMER DIVIDE AND SOUTHERN FOOTHILLS...

CITY           SKY/WX    TMP DP  RH WIND       PRES   REMARKS
COLO. SPRINGS  MOSUNNY   60  20  21 SW5       30.36R
A. F. ACADEMY  SUNNY     59  20  22 SE2       30.36R
ELLICOTT       SUNNY    N/A N/A N/A W3        30.33S
FALCON         SUNNY     59  20  22 W7        30.39R
FORT CARSON    SUNNY     58  23  26 N5        30.33R
LIMON          SUNNY     61  25  25 NW10      30.29S
MONUMENT HILL  SUNNY     57  27  30 W7        30.37R
TRINIDAD       SUNNY     58  29  33 NW5       30.35R
$$

COZ042>045-048>051-090-091-261900-
...NORTHEAST COLORADO...

CITY           SKY/WX    TMP DP  RH WIND       PRES   REMARKS
GREELEY ARPT   SUNNY     52  30  43 CALM      30.24F
AKRON          SUNNY     52  30  43 NW8       30.24S
BURLINGTON     SUNNY     61  31  32 NW15      30.23S
WRAY           SUNNY     64  29  27 NW13G18   30.19F
STERLING       SUNNY     54  37  54 S6        30.21S
HOLYOKE        SUNNY     64  30  27 NW18      30.18S
FORT MORGAN    SUNNY     51  30  44 W6        30.26S
$$

COZ086-089-092>099-261900-
...SOUTHEAST COLORADO...

CITY           SKY/WX    TMP DP  RH WIND       PRES   REMARKS
PUEBLO         SUNNY     54  27  35 NW12      30.30S
LA JUNTA       SUNNY     57  31  37 W9        30.29S
LAMAR          SUNNY     54  33  45 W10       30.25F
SPRINGFIELD      N/A     63  28  26 N20       30.26R
$$



USA.gov is the U.S. government's official web portal to all federal, state and local government web resources and services.